Location: ??????????
(48.4699°N, 37.9573°E)
Time: 13:09:32
(UTC+00:00)

PSLV R/B - Pass Details

Date: 20 January 2021
Orbit: 567 x 598 km, 98.2° (Epoch: 26 February)

Event Time Altitude Azimuth Distance (km) Brightness Sun altitude
Exits shadow 16:06:51 21° 19° (NNE) 1,350 5.5 -19.3°
Maximum altitude 16:09:36 78° 104° (ESE) 618 3.8 -19.7°
Drops below altitude 10° 16:13:48 10° 191° (S) 1,933 6.8 -20.4°
Sets 16:15:58 0° 192° (SSW) 2,829 7.7 -20.8°
